Tracking 18785 objects as of 23-July-2017
HD Live streaming from Space Station
objects crossing your sky now
MAYAK may become the brightest orbital object in the night sky!
Where is MAYAK now?
How to spot MAYAK

DSCS 2-15

Track DSCS 2-15 now!
DSCS 2-15 is classified as:


NORAD ID: 13636
Int'l Code: 1982-106A
Perigee: 37,300.4 km
Apogee: 37,323.4 km
Inclination: 16.2 °
Period: 1,514.4 minutes
Semi major axis: 43682 km
RCS: 4.13 m2 (large)
Launch date: October 30, 1982
Source: United States (US)
Launch site: AIR FORCE EASTERN TEST RANGE (AFETR)
Your satellite tracking list
Your tracking list is empty





NASA's NSSDC Master Catalog

Two Line Element Set (TLE):
1 13636U 82106A   17203.91738793 -.00000127 +00000-0 +00000-0 0  9997
2 13636 016.1763 352.3394 0002627 192.9809 125.3205 00.95090266073206
Source of the keplerian elements: AFSPC